sat.trackr.live / text

‹ back to catalog

STARLINK-5499

NORAD 55764 · 2023-028Z

PAYLOAD ACTIVE UNKNOWN

§ Identity

Operator
Country
US
Launch date
2023-03-03
Launch site
AFWTR
Launch vehicle
Mass (kg)
RCS (m²)

Purposes: comms

External: N2YO · Heavens-Above · Gunter

§ Orbital elements

Epoch: 2026-05-25T02:07:39.308160Z

Period
96.11 min
Inclination
69.9999°
Eccentricity
0.0002763
Mean motion
14.98333060 rev/d
Perigee alt
570.1 km
Apogee alt
574.0 km
Semi-major
6,950.2 km
B*
-5.4255e-6
RAAN
31.9630°
Arg perigee
267.8927°
Mean anomaly
92.1916°
Rev number
17,797

§ Raw data

STARLINK-54991 55764U 23028Z   26145.08864940 -.00000158  00000+0 -54255-5 0  99902 55764  69.9999  31.9630 0002763 267.8927  92.1916 14.98333060177977

JSON: /api/v1/satellites/55764 · /tle

For live sub-satellite position, see the globe view (requires WebGL).

§ Visibility from observer

Set your observer location to see the next 7 days of passes ≥ 10°. The values pass through the URL so the page stays shareable.

No JS? Fill the form by hand. The geolocation button needs JavaScript.